Погода в Кошкельдах

Россия / Чеченская Республика     43°15′10″N   46°21′19″E
темп.,
°C
ветер,
м/с
пор.,
м/с
влажн.,
%
обл.,
%
осадки,
мм/ч
давл.,
гПа
погр.,
м
12 мая, ср
ср1200:00+6юз11911 0.0 101512
03:00+6юз11920 0.0 101511
06:00+9юз12810 0.0 1016101
09:00+15сз22590 0.0 1016716
12:00+19ссв32510 0.0 10151137
15:00+20св32490 0.0 10151186
18:00+17в35640 0.0 1015184
21:00+12ююв22740 0.0 101516
13 мая, чт
чт1300:00+11ююв117975 0.0 101411
03:00+11юв118219 0.0 101411
06:00+12в11760 0.0 101464
09:00+19св33580 0.0 1014487
12:00+24всв44480 0.0 1013814
15:00+24всв44510 0.0 1013752
18:00+19всв35710 0.0 1014204
21:00+14ююв11889 0.0 101413
14 мая, пт
пт1400:00+13зюз019013 0.0 101410
03:00+13юв11895 0.0 101311
06:00+16ю007998 0.0 101442
09:00+22ссв216350 0.0 1013392
12:00+27св33475 0.0 1012712
15:00+30св34374 0.0 1010896
18:00+24св23610 0.0 101072
21:00+18ю22715 0.0 101121
15 мая, сб
сб1500:00+18ююз11685 0.0 101113
03:00+17ююз11650 0.0 101113
06:00+19юз11610 0.0 101228
09:00+25св22513 0.0 1012455
12:00+28св32490 0.0 1012966
15:00+30св22380 0.0 10111234
18:00+24всв22521 0.0 101132
21:00+19ююз1165100 0.0 101219
16 мая, вс
вс1600:00+19ю1173100 0.0 101116
03:00+18ююв117551 0.0 101112
06:00+19з117154 0.0 101047
09:00+25св21572 0.0 1009476
12:00+31всв56282 0.0 10061283
15:00+30в1012300 0.0 1004748
18:00+25в711420 0.0 1004302
21:00+21юв34520 0.0 100571